Regional Weather Roundup
Issued by NWS

Home | Current Version | Previous Version | Graphics & Text | Print | Product List | Glossary On
Versions: 1 2 3 4 5 6 7 8 9 10 11 12 13 14 15 16 17 18 19 20 21 22 23 24 25 26 27 28 29 30 31 32 33 34 35 36 37 38 39 40 41 42 43 44 45 46 47 48 49 50
834
ASUS43 KDMX 011503
RWRIA

WEATHER ROUNDUP FOR IOWA
NATIONAL WEATHER SERVICE DES MOINES IA
1000 AM CDT SAT OCT 01 2016

NOTE: "FAIR" INDICATES FEW OR NO CLOUDS BELOW 12,000 FEET WITH NO
SIGNIFICANT WEATHER AND/OR OBSTRUCTIONS TO VISIBILITY.

* - THESE STATIONS ARE NOT NWS STATIONS...THUS NOT UNDER NWS
QUALITY CONTROL.  THEY ALSO DO NOT REPORT WEATHER SUCH
AS PRECIPITATION OR FOG.

IAZ001>003-012>014-020>022-031>034-043>046-011600-
   NORTHWEST IOWA

CITY           SKY/WX    TMP DP  RH WIND       PRES   REMARKS
CARROLL *      CLOUDY    61  57  88 NE12      30.14R
CHEROKEE *     CLOUDY    60  58  93 CALM      30.15S
DENISON *      CLOUDY    59  57  94 NE6       30.13S
LE MARS *      CLOUDY    59  55  88 CALM      30.16S
SHELDON *      CLOUDY    61  57  88 E5        30.15R
SIOUX CITY     CLOUDY    61  57  87 CALM      30.15S
SPENCER        CLOUDY    62  56  80 N6        30.16S
STORM LAKE *   PTSUNNY   61  55  82 NE5       30.16R
$$

IAZ055>058-069>071-079>083-090>094-011600-
   SOUTHWEST IOWA

CITY           SKY/WX    TMP DP  RH WIND       PRES   REMARKS
ATLANTIC *     CLOUDY    61  57  88 N5        30.14R
AUDUBON *      LGT RAIN  59  55  88 N7        30.15R
CLARINDA *       N/A     61  57  88 MISG      30.15R
COUNCIL BLFS * CLOUDY    61  55  82 N5        30.14S HAZE
CRESTON *      CLOUDY    59  57  94 N8        30.14S
HARLAN  *      CLOUDY    59  57  94 CALM      30.17S
LAMONI         CLOUDY    60  58  92 N7        30.12S
RED OAK *      CLOUDY    63  57  82 N6        30.14R
SHENANDOAH *   CLOUDY    61  57  88 N6        30.14S
$$

IAZ047>049-059>061-072>074-084-011600-
   CENTRAL IOWA

CITY           SKY/WX    TMP DP  RH WIND       PRES   REMARKS
AMES           CLOUDY    60  59  96 N6        30.12S
ANKENY *         N/A    N/A N/A N/A MISG        N/A
BOONE *        CLOUDY    59  57  94 N8        30.12S
CHARITON *       N/A     61  59  94 NW7       30.11F
DES MOINES     CLOUDY    62  58  86 N6        30.12S
GRINNELL*      CLOUDY    60  57  88 CALM      30.10F
KNOXVILLE *    CLOUDY    61  57  88 N7        30.09F
MARSHALLTOWN   CLOUDY    61  58  90 N9        30.10F
NEWTON *       CLOUDY    61  57  88 N8        30.10S
PELLA *        CLOUDY    62  58  87 N5        30.11S
PERRY *        CLOUDY    64  60  88 N7        30.13S
$$

IAZ004>006-015-016-023>025-035-036-011600-
   NORTH CENTRAL IOWA

CITY           SKY/WX    TMP DP  RH WIND       PRES   REMARKS
ALGONA *       CLOUDY    64  57  77 NE5       30.14S
CLARION *      CLOUDY    63  57  82 NE6       30.14S
ESTHERVILLE    CLOUDY    61  56  83 N6        30.15S
FORT DODGE *   CLOUDY    61  55  82 NE6       30.14F
MASON CITY     CLOUDY    61  56  83 NE8       30.15S
FOREST CITY *  CLOUDY    61  55  82 N6        30.14S
WEBSTER CITY * CLOUDY    59  57  94 N5        30.12S
IOWA FALLS *   CLOUDY    61  57  88 NE9       30.13S
$$

IAZ007>011-017>019-026>030-037>042-050>054-066-011600-
   NORTHEAST IOWA

CITY           SKY/WX    TMP DP  RH WIND       PRES   REMARKS
CEDAR RAPIDS   CLOUDY    60  60 100 N9        30.08S
CHARLES CITY * CLOUDY    61  59  94 NE7       30.12F
CLINTON *      CLOUDY    62  61  96 N6        30.06S
DECORAH *      CLOUDY    59  57  94 VRB7G13   30.11S
DUBUQUE        CLOUDY    59  58  96 N10       30.08S FOG
MONTICELLO *   CLOUDY    61  59  94 VRB6      30.08S FOG
OELWEIN *      CLOUDY    59  57  94 NE10      30.11S
WATERLOO       CLOUDY    60  57  89 N9        30.10S
$$

IAZ064-065-067-068-078-011600-
   EAST CENTRAL IOWA

CITY           SKY/WX    TMP DP  RH WIND       PRES   REMARKS
DAVENPORT      CLOUDY    60  58  92 N8        30.06S
IOWA CITY      CLOUDY    61  59  93 N8        30.09S
MUSCATINE *    CLOUDY    63  59  88 N8        30.07S FOG
QUAD CITIES    CLOUDY    62  59  90 N5        30.05S
$$

IAZ062-063-075>077-085>089-095>099-011600-
   SOUTHEAST IOWA

CITY           SKY/WX    TMP DP  RH WIND       PRES   REMARKS
BURLINGTON     CLOUDY    60  60 100 N7        30.06S
FAIRFIELD *    CLOUDY    61  59  94 N7        30.08S FOG
FORT MADISON *   N/A     61  59  94 NW7       30.08R
KEOKUK *       CLOUDY    63  59  88 NW7       30.07R
OSKALOOSA *    CLOUDY    61  58  90 N8        30.10S
OTTUMWA        CLOUDY    62  57  83 N9        30.09S
WASHINGTON *     N/A    N/A N/A N/A MISG        N/A
$$

ABBREVIATIONS USED IN REMARKS
   TC - TEMPERATURES IN CELSIUS
  WCI - WIND CHILL INDEX
   HX - HEAT INDEX
  VSB - VISIBILITY
$$





USA.gov is the U.S. government's official web portal to all federal, state and local government web resources and services.